Погода в Амурском

Россия / Амурская область     50°44′29″N   128°44′13″E
темп.,
°C
ветер,
м/с
пор.,
м/с
влажн.,
%
обл.,
%
осадки,
мм/ч
давл.,
гПа
погр.,
м
28 ноября, вс
вс2800:00−11ю5118959 0.0 1027219
03:00−11ю41091100 0.0 1026222
06:00−13ю3895100 0.0 1025150
09:00−13ююз2597100 0.1 1025120
12:00−10зюз2393100 0.1 1023232
15:00−11зсз2495100 0.1 1023187
18:00−14сз239977 0.1 102338
21:00−11сз2696100 0.2 1022190
29 ноября, пн
пн2900:00−9сз4996100 0.6 1022499
03:00−10сз5984100 0.8 1022352
06:00−13сз410885 0.0 1023268
09:00−18зсз39915 0.0 1025146
12:00−14сз37855 0.0 1026269
15:00−14зюз22925 0.0 102616
18:00−20юз2297100 0.0 10279
21:00−18ююз2294100 0.0 102712
30 ноября, вт
вт3000:00−17ююз2293100 0.0 102626
03:00−17ююв2392100 0.0 102447
06:00−17ююв2393100 0.0 102361
09:00−17ююв1295100 0.0 102343
12:00−13ю119297 0.1 1022175
15:00−13с229690 0.1 102049
18:00−20с2210099 0.0 102113
21:00−22ссз23100100 0.1 102037
1 декабря, ср
ср100:00−21ссз3710098 0.0 101986
03:00−22ссз310975 0.0 1018136
06:00−21ссз412935 0.0 1016186
09:00−21сз412935 0.0 1016186
12:00−16ссз612855 0.0 1013435
15:00−15ссз511835 0.0 1010394
18:00−19сз410915 0.0 1010130
21:00−22сз37965 0.0 100883
2 декабря, чт
чт200:00−24сз35955 0.0 100756
03:00−26сз35965 0.0 100649
06:00−26сз24925 0.0 100645
09:00−23сз410905 0.0 1006127
12:00−17зсз49885 0.0 1005268
15:00−15зсз47895 0.0 1005224
18:00−19з38935 0.0 100691
21:00−21зсз37955 0.0 100873